Theta_e
292 287 285 288 289 287 286 284 284 287 291 288 288 288 290 289 288 287 288 288 288 288 290 290 290 289 290 290 291 292 292 294 296 298 300 303 300 300 303 307 307 310 314 314
289 285 291 291 290 288 287 285 285 288 290 288 287 287 287 288 287 287 287 287 287 287 287 288 288 287 287 288 289 290 291 291 293 295 295 297 296 296 298 299 299 301 303 306
288 291 293 292 289 288 286 285 285 287 288 286 284 284 285 287 288 288 288 287 287 286 286 286 286 285 286 285 286 288 289 290 291 292 293 293 293 292 292 293 295 295 295 295
289 293 292 290 289 290 285 290 288 286 283 280 283 278 282 284 284 285 285 285 285 286 286 286 285 284 284 284 285 287 288 288 289 290 290 289 288 287 288 289 290 291 291 290
290 289 289 288 290 291 288 288 286 285 282 280 280 278 281 284 282 283 284 285 285 285 285 284 284 285 284 284 283 285 286 286 286 287 287 286 285 286 286 286 286 287 288 288
289 290 290 291 289 289 289 286 285 282 280 276 280 280 280 282 284 283 285 285 286 285 285 284 285 284 282 282 282 283 284 284 285 284 284 284 283 283 282 283 283 283 285 285
286 287 288 290 287 287 287 284 279 276 274 276 281 279 282 285 285 286 285 285 285 284 283 283 283 282 282 281 282 283 283 283 283 283 283 282 282 282 281 282 282 282 282 282
284 283 288 289 289 286 284 285 278 269 273 276 282 279 284 285 286 287 286 285 285 284 284 283 283 282 282 281 281 281 282 282 283 283 283 282 282 281 282 282 282 282 282 282
284 284 286 287 288 289 285 282 285 279 275 274 278 282 285 285 284 284 284 284 284 284 284 283 282 282 282 281 281 281 281 281 282 283 282 282 283 282 281 281 282 281 282 283
288 281 287 287 289 287 287 289 281 279 269 267 275 278 280 281 282 283 283 283 283 284 285 283 282 283 283 282 281 282 282 281 282 282 282 282 281 282 282 281 280 280 281 282
289 286 283 287 285 284 284 283 284 283 277 270 268 275 283 284 285 284 284 284 284 284 284 283 282 282 281 281 280 280 280 280 280 280 280 280 280 281 281 280 280 280 279 279
290 285 277 283 285 285 285 285 285 280 276 277 277 278 286 286 286 285 284 285 284 283 283 283 281 280 280 279 279 279 280 280 280 280 280 279 279 279 279 279 280 279 279 280
291 282 273 277 281 284 282 284 284 282 278 273 274 277 285 286 285 286 285 284 284 283 280 281 280 279 279 279 279 279 279 280 280 280 279 279 279 278 278 279 279 279 278 278
293 283 279 279 278 282 280 283 283 280 274 279 279 282 282 284 284 284 284 285 285 282 279 279 279 280 280 280 278 278 278 279 279 279 278 278 278 278 278 278 278 277 277 277
288 278 279 280 280 280 279 280 280 279 280 278 280 281 282 284 284 283 283 282 282 280 279 279 278 278 278 278 278 278 278 278 278 277 278 277 278 278 277 277 276 276 275 275
284 274 277 274 279 280 278 280 281 282 281 280 281 280 286 282 281 278 279 280 281 280 278 278 278 278 279 279 278 279 278 279 278 277 277 277 276 276 275 274 273 272 272 272
280 274 270 268 274 272 269 273 278 279 280 279 275 279 274 276 279 279 279 278 280 280 280 279 279 279 279 279 279 277 277 277 276 276 274 275 273 271 271 271 270 270 269 269
278 274 272 269 267 264 276 274 276 276 277 275 273 272 275 277 277 277 277 277 278 278 278 278 278 277 278 278 277 277 277 276 274 272 270 271 270 268 269 268 268 267 267 267
281 278 267 269 264 269 275 275 273 272 272 275 275 275 276 276 275 274 277 277 277 278 279 279 279 278 277 277 277 275 274 274 272 272 271 269 267 265 266 263 265 265 264 264
279 280 278 263 265 262 270 273 275 276 267 271 272 273 273 274 267 274 276 278 278 279 279 279 278 277 276 275 274 273 271 270 269 270 269 268 267 261 261 263 262 263 262 264
266 269 272 267 266 264 272 274 276 265 270 269 272 274 274 272 275 277 278 277 279 279 279 278 277 277 275 273 271 270 269 268 269 267 267 266 264 261 261 261 262 261 260 262
268 265 266 264 261 262 274 274 271 275 276 275 275 276 276 277 278 277 278 277 278 278 278 278 275 274 272 271 269 268 267 268 266 266 264 261 258 258 260 256 258 258 258 258
268 271 267 269 269 276 275 277 279 279 277 277 277 278 278 278 277 278 277 277 278 277 277 274 273 271 269 268 267 266 266 266 265 261 255 254 257 258 259 255 258 258 258 258
273 273 270 270 273 274 276 278 279 279 278 279 280 279 278 277 278 278 277 277 277 275 274 271 269 269 266 265 267 264 264 264 257 257 258 258 256 257 257 259 260 258 257 258
274 274 271 271 275 275 276 277 278 279 279 278 278 279 278 277 277 277 277 276 276 273 271 270 269 267 265 265 263 262 263 260 259 258 258 257 257 255 258 259 259 260 261 262
276 274 272 269 277 275 276 278 279 278 278 278 277 277 277 277 277 276 275 274 272 270 268 267 266 265 263 262 262 262 258 258 257 257 258 257 257 258 259 258 258 264 266 268
Wind_Speed
2 4 8 14 11 2 4 4 5 5 4 2 6 8 6 8 10 8 8 9 9 10 7 9 10 11 11 13 14 15 15 15 11 7 4 6 6 7 10 9 13 12 9 7
4 7 11 4 5 5 4 4 7 7 2 4 6 10 6 9 6 6 7 7 7 5 8 11 12 13 14 13 14 15 15 15 12 8 4 4 3 5 7 8 12 14 15 13
9 6 3 8 5 5 3 5 4 6 4 0 5 7 4 4 8 9 8 6 6 6 6 8 10 10 10 14 13 14 14 15 14 12 6 4 4 4 7 9 9 12 13 13
6 5 5 5 5 7 2 7 3 2 3 3 2 6 5 4 5 5 5 5 5 5 6 6 6 10 10 10 9 11 13 15 14 14 11 14 9 7 4 5 5 7 12 12
8 7 6 4 7 7 7 3 3 2 3 3 4 1 7 6 4 5 6 5 4 4 5 6 6 6 6 7 7 8 12 14 13 14 13 10 11 6 6 7 12 13 12 13
4 2 5 8 3 4 5 4 4 4 4 0 6 7 6 6 4 6 6 7 7 6 5 5 5 4 6 6 6 7 11 11 10 11 11 12 11 9 9 9 8 7 7 8
1 3 1 3 6 4 6 6 4 5 2 6 4 2 9 4 4 9 13 9 7 6 6 6 6 5 6 7 7 7 9 11 8 10 10 9 9 8 10 7 6 8 6 6
7 3 7 3 6 8 6 7 6 7 3 4 4 7 5 3 6 8 8 8 6 6 5 5 4 5 5 6 7 6 7 8 7 8 8 7 7 5 6 6 5 5 4 4
6 5 1 1 2 5 5 5 3 6 2 1 5 6 2 5 5 6 7 6 8 7 6 6 5 5 5 6 6 6 7 6 6 7 5 6 6 7 6 6 4 3 5 6
7 2 3 3 3 3 4 7 5 3 1 5 5 6 7 7 10 8 8 9 8 8 7 7 6 6 4 5 5 5 6 7 6 6 5 5 6 5 5 5 6 5 5 5
6 5 2 4 6 9 2 2 4 4 5 6 3 7 5 10 13 16 12 10 10 9 8 7 7 6 7 5 5 5 6 6 6 5 4 6 4 5 4 4 4 5 4 5
5 5 4 8 1 1 3 7 8 7 7 4 3 11 3 5 10 9 9 11 7 6 8 7 8 7 6 5 4 4 4 4 4 4 4 4 5 5 5 5 6 6 7 6
8 0 3 9 4 2 4 5 4 5 5 8 6 8 5 4 7 7 8 7 7 8 8 7 7 7 7 6 5 4 3 3 1 2 4 6 6 7 7 7 7 7 8 9
4 4 8 12 6 5 5 5 5 6 5 7 15 11 3 3 7 6 7 7 8 8 9 7 7 7 6 6 7 6 6 4 4 3 2 1 2 4 4 5 6 6 6 7
5 6 3 2 3 4 4 6 7 8 7 10 6 12 6 10 8 8 7 7 6 7 9 10 8 7 7 7 6 6 5 5 5 4 3 1 2 2 2 3 3 4 6 7
2 3 3 1 3 3 6 6 10 11 7 9 12 20 13 3 6 5 9 6 6 7 7 7 8 6 7 8 7 6 6 6 5 4 2 2 3 4 5 6 8 9 9 10
6 7 4 5 3 4 10 11 17 12 9 9 14 16 1 5 7 8 8 7 8 7 8 8 9 8 8 8 7 7 6 5 5 4 2 3 4 5 6 8 8 9 10 11
6 6 3 3 2 4 5 1 3 5 7 6 0 4 6 4 2 4 5 7 8 7 7 7 6 6 6 3 4 6 6 5 4 3 3 4 4 4 6 7 8 9 9 10
2 6 3 5 5 9 11 5 8 9 10 9 11 5 5 0 3 5 6 5 7 7 7 7 8 5 5 6 6 6 5 5 4 3 3 2 2 3 6 7 9 9 10 10
2 4 3 4 6 11 3 2 3 5 7 8 6 7 6 5 2 7 5 6 8 8 6 7 5 4 6 6 5 5 4 4 4 3 1 1 1 2 4 7 8 7 7 11
4 0 11 7 6 9 6 4 2 7 9 5 6 6 7 6 9 6 4 7 7 7 8 5 7 8 7 6 5 5 4 2 3 2 1 1 1 3 5 6 6 8 8 10
9 10 6 3 2 9 7 5 8 7 1 6 6 7 8 9 9 6 7 9 8 9 7 7 7 7 6 6 5 5 4 3 1 1 2 3 4 5 5 5 7 6 7 8
3 10 9 11 10 2 8 7 13 6 7 7 7 7 9 9 9 10 8 9 11 9 7 5 7 7 5 5 4 5 3 2 2 2 4 3 5 6 6 5 8 6 6 6
6 5 3 4 5 7 9 7 5 6 8 6 7 8 8 9 10 10 7 8 8 5 7 6 8 8 7 5 5 3 3 3 3 3 5 5 5 5 5 5 6 6 6 6
7 8 8 3 6 1 6 10 9 9 8 7 7 9 11 9 11 9 10 9 8 6 6 8 9 7 6 6 5 4 3 3 4 4 5 4 4 5 6 6 6 6 7 9
8 6 5 7 10 7 7 7 10 10 12 11 10 8 10 10 13 8 9 6 5 7 6 6 5 6 6 5 4 4 4 4 3 4 4 3 4 4 5 5 7 13 16 19
Wind_Direction
19 109 204 205 200 125 137 188 236 253 266 316 255 265 324 351 51 69 69 69 59 42 359 17 20 19 20 24 27 27 29 18 25 18 24 38 44 28 36 32 27 24 22 17
54 222 229 139 173 204 227 222 258 286 269 169 305 290 62 39 49 60 76 71 67 57 28 24 23 22 21 21 19 27 32 29 28 32 20 45 52 45 49 37 35 28 26 26
174 219 148 165 165 170 217 197 223 239 336 2 344 297 170 62 83 73 61 67 58 57 47 27 27 21 23 35 16 28 30 38 36 28 27 30 58 47 29 25 30 27 32 34
234 226 161 165 184 153 251 215 213 185 59 251 36 281 307 130 88 65 81 88 85 66 53 43 29 35 28 23 16 39 45 41 37 38 47 54 57 50 4 10 20 27 26 27
240 165 161 179 213 158 224 147 135 133 137 66 300 213 258 136 181 174 173 148 124 105 92 71 52 46 35 26 25 38 53 53 51 54 58 59 57 46 38 37 34 25 24 25
248 277 180 189 88 152 136 117 67 58 111 208 229 181 264 190 195 156 176 171 159 135 106 86 73 59 54 42 42 40 61 55 49 57 61 69 69 57 52 37 42 34 28 22
249 231 162 136 88 40 76 66 319 334 339 224 136 153 248 301 310 177 167 171 169 153 143 137 123 103 77 59 58 64 61 59 48 60 57 62 68 63 56 43 37 26 19 20
163 260 171 192 171 176 168 156 168 225 221 287 326 235 268 4 355 112 134 154 161 168 168 157 138 102 90 77 69 68 66 66 53 58 59 47 49 62 61 45 34 30 24 10
142 261 108 78 105 136 178 162 172 106 360 324 245 300 160 87 64 113 151 167 188 182 182 168 151 131 131 114 104 103 99 93 75 73 67 59 52 57 51 36 41 11 9 8
197 101 187 145 107 37 151 157 96 7 243 260 280 266 232 195 187 189 190 200 200 200 179 172 173 153 123 135 135 113 102 95 89 82 73 70 61 52 48 33 22 8 353 356
145 124 224 108 199 175 122 169 75 125 144 180 270 259 219 190 186 192 199 201 203 198 186 176 163 167 166 158 144 135 112 107 98 90 81 75 64 48 38 31 7 1 337 348
204 134 165 198 141 341 231 189 154 178 230 240 157 262 11 192 187 168 196 209 203 178 189 176 172 172 174 170 156 138 125 120 131 131 108 72 53 31 21 9 360 351 342 342
182 240 58 348 357 32 215 215 146 106 79 198 192 262 360 78 144 196 191 217 210 195 180 178 176 187 186 188 191 191 194 203 241 29 30 20 10 2 352 342 341 343 339 334
103 142 171 221 188 131 177 203 183 144 171 211 228 262 157 178 190 193 228 224 225 201 182 185 191 198 198 200 203 208 225 218 210 195 185 210 316 298 295 310 319 320 317 310
129 194 123 22 126 130 193 187 177 195 200 204 217 231 192 204 216 231 234 245 224 190 191 199 193 202 205 211 216 216 217 206 191 175 162 235 291 293 312 325 333 329 327 328
26 146 99 346 315 332 277 191 207 223 233 253 266 267 260 163 211 225 229 230 224 214 206 196 208 204 213 218 217 208 205 178 149 144 108 12 15 21 12 355 342 337 335 331
133 128 94 252 49 47 297 207 211 213 209 215 232 247 98 221 200 214 223 213 214 208 199 202 210 215 219 219 210 208 170 138 130 116 94 74 44 15 354 343 338 333 326 322
130 110 97 151 43 234 255 13 67 221 248 207 234 231 210 218 251 249 216 195 208 193 197 211 215 223 223 174 130 127 139 137 130 102 81 58 34 353 338 334 327 320 318 316
69 132 118 168 206 314 286 203 167 171 260 194 203 210 222 94 32 290 211 204 201 204 211 212 213 212 171 166 154 143 144 134 114 132 126 86 28 330 328 318 312 310 309 308
98 25 175 135 187 219 253 350 122 111 277 216 165 182 176 108 104 259 223 207 208 208 210 220 204 157 157 162 149 145 155 152 166 153 84 20 316 278 283 290 296 295 291 294
97 113 210 207 229 289 236 199 191 107 255 163 179 177 148 178 209 220 212 208 210 219 234 216 178 186 177 144 142 157 155 190 114 68 36 308 292 274 269 274 278 283 285 291
158 161 202 90 130 271 163 71 167 205 159 172 188 200 187 217 238 214 219 220 217 230 227 203 175 173 144 139 143 157 187 133 62 326 318 312 294 293 288 271 279 275 280 284
231 197 180 182 204 205 200 192 221 176 179 198 186 217 210 224 227 228 225 219 228 226 219 171 172 150 143 144 141 163 152 157 180 291 292 288 287 284 278 275 287 297 280 281
246 149 156 117 212 214 211 242 251 197 215 218 209 216 200 216 229 234 235 244 242 208 192 160 153 169 167 156 147 143 162 171 150 247 271 268 254 277 265 271 275 275 277 285
193 131 158 255 273 241 240 223 227 230 228 252 249 228 228 208 238 223 244 238 233 188 164 166 174 171 165 157 169 175 182 168 226 250 267 257 260 258 275 262 269 268 267 273
160 161 175 214 232 185 228 217 213 221 238 229 230 251 238 206 232 218 236 232 187 170 145 148 144 142 158 166 190 197 182 188 209 257 271 256 278 275 281 288 292 290 298 303